Wind_Speed
30 31 30 29 29 29 29 29 29 27 24 22 21 22 21 18 17 17 17 16 17 17 17 17 17 18 18 18 18 18 18 18 18 17 17 17 16 15 14 13 12 12
30 30 30 29 29 29 29 29 28 26 23 22 21 22 22 19 17 18 17 17 17 18 18 18 18 18 18 18 18 18 19 18 18 18 17 17 17 15 15 14 13 13
30 30 30 30 30 30 29 28 26 25 24 23 23 23 23 20 18 18 17 16 18 19 19 19 19 18 17 17 18 18 18 19 18 18 18 17 16 15 15 14 13 13
31 31 30 29 30 31 29 27 26 26 26 25 25 24 22 20 19 17 16 17 18 19 19 19 18 18 17 17 18 19 19 18 18 18 18 17 16 15 15 13 14 13
31 30 29 30 31 30 29 27 27 28 28 27 26 24 21 20 18 17 17 18 19 20 19 18 18 18 18 19 19 20 19 19 18 17 18 18 16 15 14 13 15 14
31 29 29 30 31 31 29 27 27 29 29 27 26 23 21 20 18 18 19 19 20 21 20 19 19 18 19 19 19 19 19 19 17 17 18 18 17 15 15 15 16 15
32 30 30 31 31 31 30 28 27 29 29 27 24 22 20 19 18 18 19 20 21 21 21 20 20 19 19 19 19 19 18 17 17 17 18 18 17 16 15 15 16 16
33 31 30 31 31 30 30 29 28 28 27 25 23 21 20 19 19 19 19 20 21 21 21 21 20 19 19 19 20 20 19 17 17 18 19 18 18 16 15 14 15 15
33 31 31 32 32 30 30 30 28 27 26 24 22 21 20 19 19 19 20 21 22 21 21 21 20 19 19 19 20 20 20 18 17 18 19 19 18 17 16 15 15 15
33 32 32 33 33 31 30 30 28 25 24 23 22 21 20 20 19 19 21 22 22 22 22 21 20 20 20 19 20 20 20 19 18 19 19 19 18 17 15 14 15 15
33 33 33 34 34 32 30 28 26 25 23 22 22 22 21 20 20 20 22 23 23 23 23 22 22 21 20 20 20 20 20 19 19 19 18 17 17 16 15 14 15 15
33 34 34 34 33 31 29 28 27 25 23 23 23 23 21 20 21 22 23 24 23 23 23 23 23 21 21 21 22 21 20 19 19 19 18 17 17 16 15 15 15 15
34 34 35 35 32 31 30 29 27 25 24 25 25 23 22 22 23 23 24 24 23 24 24 24 23 22 21 22 22 21 21 20 20 20 19 19 17 16 16 15 15 15
34 34 35 34 31 30 30 28 26 25 25 26 25 23 23 24 24 24 24 24 24 24 25 24 23 23 23 23 22 22 22 22 22 22 21 19 18 16 16 16 15 15
34 33 34 34 31 30 30 28 27 27 26 26 24 23 24 24 24 25 25 25 25 25 25 24 24 24 24 24 23 23 24 23 22 22 21 20 19 18 17 16 15 14
34 34 33 33 32 30 30 30 29 27 26 26 24 23 25 25 25 25 25 25 26 26 25 24 24 24 24 24 24 25 25 24 23 22 22 22 21 19 17 15 14 13
34 34 33 33 32 31 30 30 30 28 28 27 25 25 26 26 26 26 26 26 27 26 25 25 25 24 24 24 24 24 25 24 23 23 22 22 21 20 18 16 14 11
34 34 33 33 33 32 31 31 30 30 30 28 26 26 27 27 27 27 26 26 27 26 25 25 24 23 23 23 23 23 23 23 23 23 22 21 20 20 18 16 13 11
35 34 34 33 33 32 32 31 31 31 31 28 27 28 28 27 28 28 26 26 27 27 26 25 23 22 22 22 21 22 22 22 21 21 20 20 20 19 17 14 13 13
35 34 34 33 33 33 32 31 31 32 31 29 28 29 29 28 28 28 26 26 27 27 26 25 24 24 23 22 22 21 21 21 21 20 19 20 19 18 16 14 13 15
34 33 33 34 34 33 33 32 31 32 31 29 30 30 29 28 29 27 26 27 27 27 27 25 25 25 25 23 23 21 20 20 20 20 20 19 18 18 16 14 13 13
34 33 33 34 34 33 32 32 31 32 32 30 30 30 28 28 28 27 26 27 28 28 28 26 25 27 26 24 24 24 22 20 19 20 20 19 19 19 17 14 13 13
36 34 33 34 34 32 32 33 31 31 33 32 31 30 29 28 28 27 26 28 29 30 29 27 28 28 27 27 28 27 25 23 22 22 21 20 20 19 17 15 15 15
36 36 34 34 33 31 32 33 31 32 34 33 33 32 30 29 29 27 27 29 30 31 30 29 29 28 27 29 31 29 27 25 24 24 23 21 21 19 17 17 18 17
33 33 33 33 32 31 31 32 31 32 35 34 33 33 31 29 28 28 28 29 30 31 30 29 31 29 29 31 30 28 28 26 23 24 23 21 21 19 17 17 18 18
30 31 32 34 34 33 32 32 32 33 34 34 33 32 31 29 28 29 29 28 29 30 30 30 31 30 29 30 28 28 30 27 23 24 23 21 21 20 18 18 18 19
Wind_Direction
182 179 180 181 181 181 179 178 178 178 178 176 171 167 169 169 169 172 171 168 167 164 162 161 159 157 155 154 154 152 150 148 146 147 147 143 139 137 133 129 127 124
181 180 181 181 181 180 180 179 179 179 177 175 171 169 172 171 168 170 169 168 168 165 162 160 158 158 156 155 154 151 148 146 143 145 143 137 136 134 129 126 125 124
181 180 180 180 180 180 181 180 179 179 177 173 172 171 172 171 168 169 169 168 168 165 163 161 158 159 157 154 153 149 147 144 142 144 141 133 132 129 125 125 124 123
180 180 180 180 180 180 180 179 179 180 177 173 172 170 168 168 169 169 170 170 168 164 163 161 160 159 156 154 152 147 144 142 141 144 139 130 129 127 125 127 123 119
179 180 180 180 181 180 178 178 180 180 176 172 171 170 169 170 169 167 167 168 166 162 160 159 159 157 155 155 154 148 143 140 140 143 137 129 128 126 125 125 120 114
180 180 180 181 181 179 179 179 178 176 174 172 171 171 172 172 170 167 166 164 162 160 158 157 157 157 157 157 154 149 145 142 141 141 135 129 126 124 122 121 117 112
181 181 181 180 180 180 181 179 176 174 173 172 170 171 173 173 170 167 166 164 162 160 159 158 157 157 159 158 153 148 145 144 143 140 134 130 129 127 127 128 125 121
180 181 180 178 177 178 181 178 175 175 174 172 171 173 175 174 171 169 168 166 164 163 161 160 159 159 159 159 154 149 145 144 145 143 136 133 132 132 134 139 139 134
179 179 178 176 174 174 175 175 174 174 175 175 173 174 177 177 174 171 171 169 167 166 164 162 161 160 160 161 157 151 146 146 148 145 140 139 138 138 140 145 146 141
178 178 175 174 173 171 169 171 173 173 174 175 174 174 175 176 175 174 172 171 170 168 166 164 162 161 162 163 159 153 151 151 152 148 145 146 146 145 148 151 149 144
177 177 174 173 173 172 171 173 175 175 176 177 175 174 173 172 174 175 174 173 172 170 169 167 165 165 166 163 158 155 157 156 152 150 150 152 151 151 152 152 148 145
176 175 173 172 172 173 174 174 175 176 178 179 177 174 174 175 176 176 176 176 174 172 171 170 169 170 168 163 160 159 160 156 152 152 153 153 153 154 154 150 147 147
175 174 173 172 171 172 173 173 174 176 178 180 179 176 177 179 178 178 179 179 176 175 175 173 172 172 169 164 163 164 161 156 155 157 156 154 154 154 154 154 155 157
174 173 173 172 170 170 172 173 175 177 179 179 177 175 179 180 178 179 180 179 177 178 177 176 173 171 169 167 166 166 163 160 161 163 160 157 157 157 160 164 166 167
172 172 172 171 170 169 170 172 175 177 180 179 177 177 180 181 180 181 181 179 179 180 179 177 175 173 171 170 168 167 165 165 167 166 164 161 159 162 168 173 175 175
170 170 170 170 171 170 170 172 175 178 180 178 177 179 181 182 182 182 182 182 182 181 178 177 176 176 175 174 172 170 170 170 169 168 167 166 164 166 173 177 178 179
169 170 170 170 171 172 172 174 177 180 179 176 176 180 182 183 183 184 184 185 183 180 178 178 178 177 176 176 176 175 174 173 170 170 170 170 170 173 176 175 176 181
170 171 171 171 172 174 175 176 179 180 178 176 178 181 183 185 185 185 186 186 183 179 177 177 177 177 177 179 180 179 177 175 173 173 174 174 176 180 178 177 179 180
171 172 172 173 174 175 177 178 179 179 177 177 181 183 184 186 186 187 187 185 182 178 177 176 174 177 180 182 181 179 178 178 177 177 179 178 180 184 183 181 181 174
172 173 174 176 176 177 179 177 177 177 176 178 181 182 185 187 186 187 186 184 180 177 176 175 175 178 181 180 178 178 180 181 181 181 182 182 185 190 190 187 182 175
173 174 175 177 178 180 180 178 177 177 176 179 181 183 187 188 186 186 185 181 180 179 175 175 176 178 178 176 175 177 181 184 185 185 185 186 190 195 196 193 188 183
174 175 176 178 179 180 180 178 178 178 177 179 182 184 188 187 185 186 184 180 180 180 177 175 175 178 180 179 178 178 180 185 190 191 191 191 193 197 198 196 195 194
176 177 178 180 181 179 179 179 178 177 177 179 181 183 186 186 186 186 184 182 182 181 180 176 176 183 189 188 186 184 181 185 191 194 195 195 194 195 196 193 193 197
179 180 181 181 181 180 178 179 179 177 178 181 182 183 184 185 186 185 185 188 186 183 183 181 181 188 193 194 195 192 186 186 190 192 194 193 189 189 190 191 193 196
181 180 179 179 182 181 179 180 181 179 179 180 181 182 183 184 187 186 185 189 188 186 187 188 187 190 193 196 200 198 191 190 190 190 192 192 191 193 195 198 203 205
182 178 178 181 183 182 180 181 181 177 176 177 178 180 181 183 186 186 185 187 187 187 190 191 191 192 193 197 203 201 196 194 190 189 191 193 196 200 201 204 208 209
Height
797 799 802 804 807 810 811 813 815 817 819 821 823 825 826 827 828 829 830 832 833 833 834 835 835 835 835 836 836 837 837 838 840 841 842 842 843 844 845 845 846 847
796 799 801 804 806 809 811 812 815 816 818 820 822 824 825 826 827 828 829 831 832 833 834 834 834 834 834 835 836 836 837 838 840 841 842 842 843 844 844 845 846 847
795 798 800 803 805 808 810 812 814 816 817 819 820 822 823 824 826 827 828 830 831 832 833 833 833 833 834 835 835 836 837 838 839 840 841 842 843 843 844 845 846 847
794 797 799 802 804 806 809 811 813 814 816 817 819 820 821 823 824 826 827 829 830 831 831 832 832 832 833 834 835 836 837 838 839 840 841 842 843 843 844 845 846 847
793 795 798 801 803 805 808 809 811 813 814 816 817 818 820 821 823 824 826 827 828 829 830 830 831 832 833 834 835 836 837 838 839 840 840 842 843 844 845 846 847 848
791 794 797 799 801 804 806 808 809 811 812 814 815 817 818 819 821 823 824 826 827 828 829 829 830 832 833 834 835 835 836 837 839 840 840 841 843 844 846 846 847 849
789 792 795 798 800 802 804 806 808 809 811 812 814 815 816 818 819 821 823 824 826 827 828 828 830 831 832 833 834 835 836 837 838 840 840 842 843 845 846 847 848 849
788 791 793 796 798 801 803 805 807 808 810 811 812 814 815 816 818 820 822 823 824 826 827 828 829 830 832 833 834 835 836 837 838 839 841 842 843 845 846 847 848 849
786 789 792 794 796 799 801 803 805 806 808 809 811 812 813 815 816 818 820 822 823 825 826 827 829 830 831 832 833 834 836 837 838 839 841 842 843 844 846 847 848 849
785 788 790 792 795 797 799 801 803 805 807 809 810 811 812 814 816 817 819 821 822 824 825 827 828 829 831 832 833 835 835 837 838 840 841 842 843 844 845 847 848 849
783 786 788 790 793 796 797 799 801 804 806 808 809 810 811 813 815 817 818 820 821 823 824 826 827 829 830 832 833 835 835 836 838 839 841 842 843 844 845 847 848 848
782 784 786 789 791 794 796 798 800 803 805 807 808 809 810 812 814 816 817 819 821 822 824 825 827 828 830 831 833 834 835 836 838 839 841 842 843 844 846 847 847 848
780 782 785 787 790 792 794 796 799 802 803 805 807 808 810 812 813 815 817 818 820 822 823 825 826 828 829 831 832 833 835 836 837 839 841 842 843 844 846 847 847 848
778 781 783 786 788 790 793 795 798 800 802 804 805 806 809 811 813 815 816 818 820 821 822 824 826 827 829 830 831 833 834 835 837 839 840 842 843 845 845 846 847 848
776 780 782 785 787 789 791 794 797 799 801 803 804 805 808 811 812 814 816 817 819 820 822 823 825 826 828 829 831 832 834 835 836 838 840 841 843 844 845 846 847 848
775 778 781 782 785 787 790 792 796 798 800 801 803 805 807 810 812 814 815 817 818 819 821 823 825 826 828 829 830 832 833 834 836 837 839 840 842 843 844 845 846 848
773 776 778 780 783 786 789 791 795 797 798 800 802 804 807 809 811 813 814 816 817 819 821 823 824 826 828 830 831 832 833 834 836 837 838 840 841 841 843 844 846 847
771 774 776 779 781 784 787 790 793 795 797 798 800 803 806 808 810 812 813 815 817 819 821 823 825 827 829 831 832 833 834 835 836 838 839 840 841 841 842 843 845 846
769 772 775 777 779 783 786 789 792 794 795 796 799 803 805 807 809 811 812 814 816 818 820 823 825 828 829 831 833 834 835 836 837 839 839 840 841 841 842 843 844 845
767 769 772 775 778 782 785 787 790 792 793 795 798 802 804 806 808 810 812 814 815 817 819 821 823 825 827 830 832 834 836 837 837 838 839 840 841 841 842 843 843 844
764 768 771 774 777 780 783 786 788 790 791 794 797 800 803 804 807 809 811 813 814 816 818 820 822 824 826 828 831 834 836 837 837 838 839 840 840 841 842 843 843 844
762 766 769 772 775 779 781 784 786 787 789 792 796 799 802 804 806 808 810 811 812 814 816 819 821 824 826 827 829 831 834 837 838 838 838 839 839 840 841 842 843 843
759 763 766 770 773 776 779 782 784 785 787 790 794 797 800 802 805 807 808 809 810 812 814 817 820 822 824 825 826 827 830 833 835 836 837 837 838 839 840 841 842 843
756 760 763 768 772 775 778 780 782 784 786 788 791 794 798 801 803 805 807 807 808 810 813 815 818 820 822 823 824 825 828 830 832 834 835 836 836 837 838 840 841 842
755 759 763 768 772 775 777 778 779 781 784 786 789 792 796 799 801 804 805 806 807 809 811 813 815 817 820 822 823 825 827 829 830 831 833 834 835 836 837 838 840 841
755 759 763 767 770 772 774 776 778 780 783 786 788 791 794 797 800 802 804 805 806 807 809 811 813 815 818 820 822 824 826 827 828 829 830 832 833 834 835 837 838 839